This demonstration page uses our WeatherBlox Daily Observations layout. Learn more.

Hourly Observations for January 3, 2020

Temp ( °F °C ) Dew Point ( °F °C ) Humidity (%) Winds ( mph kmh ) Pressure ( in mb ) Visibility ( mi km ) Precip ( " mm )
12:16 am 00:16 Cloudy 45 7 45 7 100 100 Calm 29.74 1007 1.5 2.41401 N/A
12:35 am 00:35 Cloudy 45 7 45 7 100 100 Calm 29.74 1007 1.25 2.011675 N/A
12:55 am 00:55 Cloudy 45 7 45 7 100 100 SE 3 6 29.72 1006 1.25 2.011675 N/A
1:16 am 01:16 Cloudy 45 7 45 7 100 100 SSE 3 6 29.73 1007 2 3.21868 N/A
1:36 am 01:36 Cloudy 45 7 45 7 100 100 Calm 29.75 1007 2 3.21868 N/A
1:55 am 01:55 Cloudy 45 7 45 7 100 100 SSE 3 6 29.74 1007 2.5 4.02335 N/A
2:15 am 02:15 Cloudy 45 7 45 7 100 100 Calm 29.72 1006 2.5 4.02335 N/A
2:36 am 02:36 Cloudy 45 7 45 7 100 100 SSE 3 6 29.73 1007 2.5 4.02335 N/A
2:55 am 02:55 Cloudy 45 7 45 7 100 100 Calm 29.74 1007 2.5 4.02335 N/A
3:15 am 03:15 Cloudy 45 7 45 7 100 100 Calm 29.75 1007 2 3.21868 N/A
3:35 am 03:35 Cloudy 45 7 45 7 100 100 Calm 29.74 1007 2 3.21868 N/A
3:56 am 03:56 Cloudy 45 7 45 7 100 100 Calm 29.73 1007 1.25 2.011675 N/A
4:16 am 04:16 Cloudy 45 7 45 7 100 100 Calm 29.74 1007 1 1.60934 N/A
4:36 am 04:36 Cloudy 45 7 45 7 100 100 Calm 29.73 1007 0.75 1.207005 N/A
4:56 am 04:56 Cloudy 45 7 45 7 100 100 Calm 29.74 1007 1 1.60934 N/A
5:15 am 05:15 Cloudy 45 7 45 7 100 100 Calm 29.77 1008 1 1.60934 N/A
5:36 am 05:36 Cloudy 43 6 43 6 100 100 Calm 29.74 1007 0.75 1.207005 N/A
5:55 am 05:55 Cloudy 45 7 45 7 100 100 Calm 29.75 1007 1 1.60934 N/A
6:16 am 06:16 Cloudy 45 7 45 7 100 100 WNW 3 6 29.77 1008 1 1.60934 N/A
6:36 am 06:36 Cloudy 45 7 45 7 100 100 Calm 29.77 1008 2 3.21868 N/A
6:56 am 06:56 Cloudy 45 7 45 7 100 100 Calm 29.78 1008 2.5 4.02335 N/A
7:16 am 07:16 Cloudy 45 7 45 7 100 100 Calm 29.79 1009 2.5 4.02335 N/A
7:36 am 07:36 Cloudy 45 7 45 7 100 100 Calm 29.8 1009 1.5 2.41401 N/A
7:56 am 07:56 Cloudy 45 7 45 7 100 100 Calm 29.79 1009 1.5 2.41401 N/A
8:16 am 08:16 Cloudy 45 7 45 7 100 100 Calm 29.78 1008 1 1.60934 N/A
8:36 am 08:36 Cloudy 45 7 45 7 100 100 Calm 29.79 1009 0.75 1.207005 N/A
8:55 am 08:55 Cloudy 43 6 43 6 100 100 Calm 29.79 1009 1.25 2.011675 N/A
9:15 am 09:15 Cloudy 45 7 45 7 100 100 Calm 29.8 1009 2 3.21868 N/A
9:36 am 09:36 Cloudy 45 7 45 7 100 100 Calm 29.81 1009 4 6.43736 N/A
9:55 am 09:55 Cloudy 46 8 46 8 100 100 Calm 29.81 1009 3 4.82802 N/A
10:16 am 10:16 Cloudy 46 8 46 8 100 100 Calm 29.81 1009 3 4.82802 N/A
10:35 am 10:35 Cloudy 46 8 46 8 100 100 Calm 29.81 1009 3 4.82802 N/A
10:55 am 10:55 Cloudy 46 8 46 8 100 100 NNW 5 7 29.81 1009 7 11.26538 N/A
11:16 am 11:16 Cloudy 46 8 46 8 100 100 Calm 29.81 1009 7 11.26538 N/A
11:36 am 11:36 Cloudy 46 8 46 8 100 100 Calm 29.81 1009 7 11.26538 N/A
11:55 am 11:55 Cloudy 46 8 46 8 100 100 NW 3 6 29.81 1009 5 8.0467 N/A
12:15 pm 12:15 Cloudy 46 8 46 8 100 100 Calm 29.8 1009 5 8.0467 N/A
12:35 pm 12:35 Cloudy 46 8 46 8 100 100 NNW 3 6 29.79 1009 5 8.0467 N/A
12:56 pm 12:56 Cloudy 46 8 46 8 100 100 Calm 29.78 1008 7 11.26538 N/A
1:16 pm 13:16 Cloudy 48 9 48 9 100 100 NW 3 6 29.77 1008 7 11.26538 N/A
1:35 pm 13:35 Cloudy 48 9 48 9 100 100 NW 5 7 29.75 1008 7 11.26538 N/A
1:56 pm 13:56 Cloudy 48 9 48 9 100 100 W 3 6 29.76 1008 7 11.26538 N/A
2:16 pm 14:16 Cloudy 48 9 48 9 100 100 WNW 3 6 29.75 1008 7 11.26538 N/A
2:36 pm 14:36 Cloudy 48 9 48 9 100 100 NNW 5 7 29.75 1008 7 11.26538 N/A
2:56 pm 14:56 Cloudy 46 8 46 8 100 100 N 6 9 29.77 1008 5 8.0467 N/A
3:15 pm 15:15 Cloudy 46 8 46 8 100 100 NNW 7 11 29.77 1008 3 4.82802 N/A
3:35 pm 15:35 Cloudy 46 8 46 8 100 100 NNW 6 9 29.78 1008 3 4.82802 N/A
3:56 pm 15:56 Cloudy 46 8 46 8 100 100 NNW 6 9 29.78 1008 3 4.82802 N/A
4:16 pm 16:16 Cloudy 46 8 46 8 100 100 NNW 3 6 29.78 1008 4 6.43736 N/A
4:36 pm 16:36 Cloudy 46 8 46 8 100 100 NNW 9 15 29.79 1009 4 6.43736 N/A
4:55 pm 16:55 Cloudy 45 7 45 7 100 100 NNW 8 13 29.8 1009 0.5 0.80467 N/A
5:15 pm 17:15 Cloudy 45 7 45 7 100 100 N 8 13 29.8 1009 0.5 0.80467 N/A
5:35 pm 17:35 Cloudy 43 6 43 6 100 100 NNW 7 11 29.8 1009 0.25 0.402335 N/A
5:55 pm 17:55 Cloudy 43 6 43 6 100 100 NNW 7 11 29.81 1010 0.75 1.207005 N/A
6:16 pm 18:16 Cloudy 43 6 43 6 100 100 NNW 6 9 29.81 1010 0.75 1.207005 N/A
6:36 pm 18:36 Cloudy 43 6 43 6 100 100 NNW 7 11 29.81 1010 0.75 1.207005 N/A
6:55 pm 18:55 Cloudy 43 6 43 6 100 100 N 7 11 29.81 1010 1.25 2.011675 N/A
7:16 pm 19:16 Cloudy 43 6 43 6 100 100 NNW 7 11 29.81 1010 2.5 4.02335 N/A
7:36 pm 19:36 Cloudy 43 6 43 6 100 100 NNW 7 11 29.81 1010 3 4.82802 N/A
7:56 pm 19:56 Cloudy 41 5 41 5 100 100 NNW 8 13 29.84 1010 3 4.82802 N/A
8:16 pm 20:16 Cloudy 41 5 41 5 100 100 NNW 6 9 29.83 1010 3 4.82802 N/A
8:36 pm 20:36 Cloudy 41 5 41 5 100 100 NNW 7 11 29.84 1010 3 4.82802 N/A
8:56 pm 20:56 Cloudy 41 5 41 5 100 100 NNW 10 17 29.84 1010 2 3.21868 N/A
9:16 pm 21:16 Cloudy 41 5 41 5 100 100 NW 7 11 29.84 1010 2 3.21868 N/A
9:35 pm 21:35 Cloudy 41 5 41 5 100 100 NNW 9 15 29.84 1010 1.75 2.816345 N/A
9:56 pm 21:56 Cloudy 41 5 41 5 100 100 NNW 10 17 29.85 1011 1.25 2.011675 N/A
10:15 pm 22:15 Cloudy 41 5 41 5 100 100 NW 7 11 29.85 1011 1.75 2.816345 N/A
10:36 pm 22:36 Cloudy 41 5 41 5 100 100 NNW 7 11 29.86 1011 2.5 4.02335 N/A
10:56 pm 22:56 Cloudy 41 5 41 5 100 100 NNW 5 7 29.85 1011 2.5 4.02335 N/A
11:15 pm 23:15 Cloudy 41 5 41 5 100 100 NW 6 9 29.86 1011 2.5 4.02335 N/A
11:35 pm 23:35 Cloudy 41 5 41 5 100 100 NW 3 6 29.85 1011 2.5 4.02335 N/A
11:55 pm 23:55 Cloudy 41 5 41 5 100 100 NW 5 7 29.85 1011 2.5 4.02335 N/A

Powered by AerisWeather